DAL8152 KLAX-KSFO

Flight info

Callsign DAL8152
Flight time 0h 52m
Altitude 38000
Route SUMMR2 STOKD SERFR SERFR4
Aircraft B763/H-SDE3FGHIM3RWXY/LB1

Departure

Time 2026-04-24 19:42
Airport Los Angeles International Airport (KLAX)

Arrival

Time 2026-04-24 20:34
Airport San Francisco International Airport (KSFO)
Time Latitude Longitude Altitude Speed Heading
2026-04-24 18:58 33.94031 -118.39987 127 ft 0 kts 50°
2026-04-24 19:26 33.94027 -118.39994 126 ft 2 kts 50°
2026-04-24 19:26 33.94017 -118.40007 126 ft 2 kts 50°
2026-04-24 19:26 33.94004 -118.40025 126 ft 2 kts 50°
2026-04-24 19:26 33.93998 -118.40035 126 ft 2 kts 45°
2026-04-24 19:27 33.93986 -118.40045 126 ft 2 kts 26°
2026-04-24 19:27 33.93972 -118.40050 126 ft 2 kts 345°
2026-04-24 19:27 33.93959 -118.40041 125 ft 2 kts 302°
2026-04-24 19:27 33.93957 -118.40019 125 ft 2 kts 253°
2026-04-24 19:28 33.93961 -118.40002 125 ft 2 kts 259°
2026-04-24 19:28 33.93962 -118.39994 125 ft 1 kts 262°
2026-04-24 19:28 33.93962 -118.39990 125 ft 0 kts 264°
2026-04-24 19:31 33.93962 -118.39991 125 ft 0 kts 264°
2026-04-24 19:32 33.93962 -118.39992 125 ft 0 kts 264°
2026-04-24 19:32 33.93959 -118.40022 125 ft 5 kts 264°
2026-04-24 19:32 33.93953 -118.40077 126 ft 7 kts 263°
2026-04-24 19:32 33.93946 -118.40147 127 ft 9 kts 263°
2026-04-24 19:33 33.93937 -118.40237 127 ft 12 kts 263°
2026-04-24 19:33 33.93922 -118.40393 130 ft 15 kts 263°
2026-04-24 19:33 33.93913 -118.40484 131 ft 17 kts 264°
2026-04-24 19:33 33.93892 -118.40682 134 ft 18 kts 263°
2026-04-24 19:34 33.93875 -118.40843 135 ft 20 kts 263°
2026-04-24 19:34 33.93863 -118.40963 135 ft 22 kts 263°
2026-04-24 19:34 33.93848 -118.41108 135 ft 10 kts 263°
2026-04-24 19:34 33.93866 -118.41160 134 ft 7 kts 333°
2026-04-24 19:35 33.93932 -118.41174 132 ft 12 kts 353°
2026-04-24 19:35 33.94037 -118.41189 130 ft 17 kts 354°
2026-04-24 19:35 33.94167 -118.41208 130 ft 20 kts 353°
2026-04-24 19:35 33.94317 -118.41231 130 ft 23 kts 353°
2026-04-24 19:36 33.94488 -118.41255 130 ft 26 kts 353°
2026-04-24 19:36 33.94674 -118.41283 130 ft 27 kts 353°
2026-04-24 19:36 33.94769 -118.41296 130 ft 7 kts 359°
2026-04-24 19:36 33.94798 -118.41248 131 ft 7 kts 81°
2026-04-24 19:37 33.94806 -118.41172 131 ft 11 kts 83°
2026-04-24 19:37 33.94813 -118.41105 131 ft 13 kts 83°
2026-04-24 19:37 33.94826 -118.40977 131 ft 17 kts 83°
2026-04-24 19:37 33.94850 -118.40755 129 ft 22 kts 84°
2026-04-24 19:38 33.94871 -118.40550 128 ft 25 kts 82°
2026-04-24 19:38 33.94885 -118.40405 127 ft 24 kts 83°
2026-04-24 19:38 33.94902 -118.40247 125 ft 18 kts 82°
2026-04-24 19:38 33.94917 -118.40092 124 ft 17 kts 84°
2026-04-24 19:39 33.94930 -118.39964 121 ft 9 kts 80°
2026-04-24 19:39 33.94946 -118.39930 120 ft 0 kts 39°
2026-04-24 19:40 33.94965 -118.39915 120 ft 5 kts 25°
2026-04-24 19:40 33.95016 -118.39915 119 ft 9 kts 355°
2026-04-24 19:40 33.95042 -118.39959 119 ft 7 kts 265°
2026-04-24 19:41 33.95032 -118.40057 120 ft 23 kts 263°
2026-04-24 19:41 33.94990 -118.40468 126 ft 75 kts 263°
2026-04-24 19:41 33.94907 -118.41309 130 ft 124 kts 261°
2026-04-24 19:41 33.94726 -118.42989 181 ft 173 kts 265°
2026-04-24 19:42 33.94622 -118.43954 435 ft 180 kts 264°
2026-04-24 19:42 33.94463 -118.45422 1064 ft 181 kts 264°
2026-04-24 19:42 33.94326 -118.46963 1589 ft 188 kts 269°
2026-04-24 19:42 33.94292 -118.48553 2121 ft 195 kts 270°
2026-04-24 19:43 33.94248 -118.50202 2665 ft 203 kts 270°
2026-04-24 19:43 33.94140 -118.51914 3207 ft 212 kts 266°
2026-04-24 19:43 33.93994 -118.53790 3509 ft 234 kts 266°
2026-04-24 19:43 33.93791 -118.56409 4420 ft 237 kts 266°
2026-04-24 19:44 33.93688 -118.57724 4850 ft 239 kts 266°
2026-04-24 19:44 33.93531 -118.59742 5407 ft 248 kts 265°
2026-04-24 19:44 33.93364 -118.61888 5806 ft 267 kts 265°
2026-04-24 19:44 33.93189 -118.64080 6629 ft 268 kts 265°
2026-04-24 19:45 33.93012 -118.66363 7225 ft 279 kts 264°
2026-04-24 19:45 33.92833 -118.68682 8048 ft 281 kts 264°
2026-04-24 19:45 33.92652 -118.71016 8810 ft 285 kts 264°
2026-04-24 19:45 33.92405 -118.74199 9834 ft 289 kts 264°
2026-04-24 19:46 33.92281 -118.75781 10325 ft 292 kts 264°
2026-04-24 19:46 33.92080 -118.78330 10497 ft 319 kts 264°
2026-04-24 19:46 33.91867 -118.81068 10591 ft 347 kts 264°
2026-04-24 19:46 33.91725 -118.84045 11182 ft 359 kts 271°
2026-04-24 19:47 33.91832 -118.87019 12018 ft 361 kts 271°
2026-04-24 19:47 33.91907 -118.90072 12827 ft 364 kts 271°
2026-04-24 19:47 33.91997 -118.93131 13601 ft 367 kts 271°
2026-04-24 19:47 33.92113 -118.97218 14592 ft 371 kts 271°
2026-04-24 19:48 33.92195 -118.99264 15095 ft 371 kts 274°
2026-04-24 19:48 33.92775 -119.02305 15823 ft 376 kts 289°
2026-04-24 19:48 33.95431 -119.07809 17288 ft 383 kts 298°
2026-04-24 19:49 33.98231 -119.13248 18781 ft 388 kts 298°
2026-04-24 19:49 34.02038 -119.19347 20388 ft 402 kts 313°
2026-04-24 19:50 34.08151 -119.24759 22079 ft 413 kts 318°
2026-04-24 19:50 34.10485 -119.26769 22691 ft 415 kts 318°
2026-04-24 19:51 34.15210 -119.30839 23870 ft 421 kts 317°
2026-04-24 19:51 34.17626 -119.32925 24144 ft 436 kts 317°
2026-04-24 19:52 34.22487 -119.37109 25796 ft 429 kts 317°
2026-04-24 19:52 34.24932 -119.39223 26373 ft 433 kts 317°
2026-04-24 19:52 34.27363 -119.41325 26970 ft 435 kts 316°
2026-04-24 19:52 34.29864 -119.43489 27547 ft 439 kts 316°
2026-04-24 19:53 34.32354 -119.45645 28119 ft 442 kts 316°
2026-04-24 19:53 34.34841 -119.47799 28672 ft 445 kts 316°
2026-04-24 19:53 34.40749 -119.52972 30010 ft 449 kts 314°
2026-04-24 19:54 34.42279 -119.54623 30357 ft 444 kts 308°
2026-04-24 19:54 34.44429 -119.57307 31005 ft 442 kts 308°
2026-04-24 19:54 34.46569 -119.59923 31696 ft 439 kts 307°
2026-04-24 19:54 34.48712 -119.62563 32372 ft 437 kts 307°
2026-04-24 19:55 34.50143 -119.64322 32810 ft 436 kts 307°
2026-04-24 19:55 34.52964 -119.67798 33653 ft 434 kts 307°
2026-04-24 19:55 34.55059 -119.70380 34252 ft 433 kts 306°
2026-04-24 19:55 34.57878 -119.73857 35027 ft 432 kts 306°
2026-04-24 19:56 34.59283 -119.75593 35394 ft 431 kts 306°
2026-04-24 19:56 34.61391 -119.78196 35953 ft 429 kts 306°
2026-04-24 19:56 34.63485 -119.80784 36463 ft 427 kts 306°
2026-04-24 19:56 34.65551 -119.83341 36907 ft 427 kts 306°
2026-04-24 19:57 34.67625 -119.85911 37306 ft 426 kts 306°
2026-04-24 19:57 34.69704 -119.88487 37651 ft 423 kts 306°
2026-04-24 19:57 34.71766 -119.91044 37687 ft 423 kts 306°
2026-04-24 19:58 34.75877 -119.96148 37634 ft 420 kts 306°
2026-04-24 19:58 34.79929 -120.01189 37511 ft 419 kts 306°
2026-04-24 19:59 34.83998 -120.06255 37528 ft 417 kts 306°
2026-04-24 19:59 34.88047 -120.11306 37654 ft 420 kts 306°
2026-04-24 20:00 34.92136 -120.16415 37819 ft 423 kts 306°
2026-04-24 20:00 34.96261 -120.21571 37948 ft 423 kts 306°
2026-04-24 20:01 35.00351 -120.26695 38043 ft 423 kts 306°
2026-04-24 20:01 35.04469 -120.31863 38044 ft 424 kts 306°
2026-04-24 20:02 35.08595 -120.37043 38029 ft 424 kts 307°
2026-04-24 20:02 35.12963 -120.41965 38020 ft 428 kts 309°
2026-04-24 20:03 35.17392 -120.46920 38014 ft 430 kts 309°
2026-04-24 20:03 35.21778 -120.51836 38010 ft 429 kts 309°
2026-04-24 20:04 35.26202 -120.56806 38009 ft 430 kts 309°
2026-04-24 20:04 35.30597 -120.61752 38002 ft 430 kts 310°
2026-04-24 20:05 35.34989 -120.66700 38008 ft 430 kts 309°
2026-04-24 20:05 35.39400 -120.71679 38012 ft 430 kts 309°
2026-04-24 20:06 35.43773 -120.76623 38017 ft 430 kts 309°
2026-04-24 20:06 35.48201 -120.81589 38023 ft 433 kts 313°
2026-04-24 20:07 35.52229 -120.85373 38028 ft 437 kts 314°
2026-04-24 20:07 35.57858 -120.90614 38014 ft 437 kts 315°
2026-04-24 20:08 35.62695 -120.95113 38005 ft 436 kts 315°
2026-04-24 20:08 35.67496 -120.99577 37996 ft 427 kts 315°
2026-04-24 20:08 35.69836 -121.01753 37979 ft 413 kts 314°
2026-04-24 20:09 35.72107 -121.03867 37636 ft 405 kts 314°
2026-04-24 20:09 35.74319 -121.05937 36989 ft 405 kts 314°
2026-04-24 20:09 35.76540 -121.08015 36360 ft 404 kts 314°
2026-04-24 20:09 35.78788 -121.10117 35646 ft 404 kts 314°
2026-04-24 20:10 35.81046 -121.12230 34742 ft 406 kts 314°
2026-04-24 20:10 35.83273 -121.14316 33817 ft 409 kts 315°
2026-04-24 20:10 35.85550 -121.16448 32986 ft 406 kts 315°
2026-04-24 20:10 35.87776 -121.18535 32491 ft 406 kts 315°
2026-04-24 20:11 35.90037 -121.20664 31850 ft 416 kts 315°
2026-04-24 20:11 35.92374 -121.22844 31250 ft 422 kts 315°
2026-04-24 20:11 35.94737 -121.25069 30686 ft 423 kts 315°
2026-04-24 20:11 35.97076 -121.27271 30183 ft 422 kts 315°
2026-04-24 20:12 35.99405 -121.29460 29760 ft 422 kts 315°
2026-04-24 20:12 36.01750 -121.31657 29342 ft 423 kts 316°
2026-04-24 20:12 36.04091 -121.33851 28896 ft 421 kts 315°
2026-04-24 20:12 36.06408 -121.36035 28487 ft 416 kts 316°
2026-04-24 20:13 36.08814 -121.38034 27902 ft 421 kts 322°
2026-04-24 20:13 36.11292 -121.39938 27473 ft 414 kts 321°
2026-04-24 20:13 36.13695 -121.41806 27046 ft 412 kts 321°
2026-04-24 20:13 36.16130 -121.43706 26601 ft 412 kts 322°
2026-04-24 20:14 36.18563 -121.45603 26112 ft 412 kts 322°
2026-04-24 20:14 36.20992 -121.47501 25625 ft 411 kts 322°
2026-04-24 20:14 36.23387 -121.49372 25143 ft 408 kts 322°
2026-04-24 20:14 36.25791 -121.51252 24657 ft 404 kts 322°
2026-04-24 20:15 36.28144 -121.53095 24212 ft 402 kts 323°
2026-04-24 20:15 36.30502 -121.54943 23773 ft 401 kts 323°
2026-04-24 20:15 36.32867 -121.56798 23334 ft 400 kts 323°
2026-04-24 20:15 36.35218 -121.58643 22896 ft 399 kts 323°
2026-04-24 20:16 36.37565 -121.60487 22454 ft 398 kts 323°
2026-04-24 20:16 36.39912 -121.62330 22012 ft 394 kts 323°
2026-04-24 20:16 36.42215 -121.64142 21608 ft 391 kts 323°
2026-04-24 20:16 36.44529 -121.65963 21205 ft 390 kts 323°
2026-04-24 20:17 36.46809 -121.67758 20748 ft 388 kts 323°
2026-04-24 20:17 36.51277 -121.71281 20278 ft 370 kts 323°
2026-04-24 20:17 36.53442 -121.72993 19835 ft 371 kts 323°
2026-04-24 20:18 36.55637 -121.74727 19402 ft 367 kts 323°
2026-04-24 20:18 36.57778 -121.76421 18973 ft 363 kts 323°
2026-04-24 20:18 36.59880 -121.78085 18538 ft 360 kts 323°
2026-04-24 20:18 36.62011 -121.79755 18093 ft 357 kts 324°
2026-04-24 20:19 36.64090 -121.81413 17648 ft 355 kts 324°
2026-04-24 20:19 36.66167 -121.83064 17217 ft 353 kts 324°
2026-04-24 20:19 36.68222 -121.84697 16802 ft 351 kts 324°
2026-04-24 20:19 36.70276 -121.86329 16392 ft 349 kts 324°
2026-04-24 20:20 36.72321 -121.87955 15994 ft 348 kts 324°
2026-04-24 20:20 36.74446 -121.89353 15591 ft 350 kts 338°
2026-04-24 20:20 36.76829 -121.90122 15199 ft 350 kts 345°
2026-04-24 20:20 36.79184 -121.90801 14785 ft 348 kts 344°
2026-04-24 20:21 36.81538 -121.91465 14375 ft 346 kts 345°
2026-04-24 20:21 36.83888 -121.92127 13968 ft 344 kts 345°
2026-04-24 20:21 36.86219 -121.92781 13568 ft 342 kts 345°
2026-04-24 20:21 36.88575 -121.93441 13160 ft 340 kts 345°
2026-04-24 20:22 36.90887 -121.94089 12759 ft 338 kts 345°
2026-04-24 20:22 36.93169 -121.94728 12375 ft 337 kts 345°
2026-04-24 20:22 36.95465 -121.95385 12005 ft 335 kts 343°
2026-04-24 20:22 36.97689 -121.96246 11631 ft 332 kts 340°
2026-04-24 20:23 36.99896 -121.97118 11269 ft 331 kts 340°
2026-04-24 20:23 37.02073 -121.97977 10913 ft 329 kts 340°
2026-04-24 20:23 37.04255 -121.98830 10557 ft 328 kts 340°
2026-04-24 20:23 37.06430 -121.99681 10286 ft 321 kts 341°
2026-04-24 20:24 37.08526 -122.00500 10258 ft 306 kts 341°
2026-04-24 20:24 37.10509 -122.01276 10218 ft 292 kts 341°
2026-04-24 20:24 37.12450 -122.02035 9951 ft 289 kts 341°
2026-04-24 20:24 37.14349 -122.02779 9692 ft 285 kts 341°
2026-04-24 20:25 37.16234 -122.03516 9453 ft 281 kts 341°
2026-04-24 20:25 37.18106 -122.04249 9194 ft 280 kts 341°
2026-04-24 20:25 37.19969 -122.04979 8948 ft 278 kts 341°
2026-04-24 20:25 37.21815 -122.05703 8704 ft 277 kts 342°
2026-04-24 20:26 37.23662 -122.06427 8466 ft 277 kts 342°
2026-04-24 20:26 37.25492 -122.07145 8240 ft 276 kts 342°
2026-04-24 20:26 37.27334 -122.07868 8015 ft 276 kts 342°
2026-04-24 20:26 37.29165 -122.08589 7698 ft 278 kts 342°
2026-04-24 20:27 37.31020 -122.09319 7349 ft 279 kts 342°
2026-04-24 20:27 37.32885 -122.10054 6962 ft 283 kts 342°
2026-04-24 20:27 37.34750 -122.10789 6706 ft 277 kts 342°
2026-04-24 20:27 37.36581 -122.11511 6354 ft 276 kts 342°
2026-04-24 20:28 37.38421 -122.12196 5879 ft 274 kts 345°
2026-04-24 20:28 37.40178 -122.12790 5830 ft 253 kts 345°
2026-04-24 20:28 37.41892 -122.13379 5394 ft 259 kts 345°
2026-04-24 20:28 37.43644 -122.13981 4890 ft 261 kts 345°
2026-04-24 20:29 37.45410 -122.14583 4400 ft 263 kts 345°
2026-04-24 20:29 37.47160 -122.15159 4060 ft 256 kts 345°
2026-04-24 20:29 37.48853 -122.15717 3778 ft 246 kts 345°
2026-04-24 20:29 37.50498 -122.16260 3515 ft 237 kts 345°
2026-04-24 20:30 37.52045 -122.16772 3290 ft 226 kts 345°
2026-04-24 20:30 37.53428 -122.17624 2908 ft 221 kts 321°
2026-04-24 20:30 37.54358 -122.19089 2678 ft 210 kts 297°
2026-04-24 20:30 37.54958 -122.20715 2484 ft 200 kts 297°
2026-04-24 20:31 37.55651 -122.22234 2198 ft 196 kts 301°
2026-04-24 20:31 37.56285 -122.23714 2021 ft 187 kts 298°
2026-04-24 20:31 37.56866 -122.25118 1878 ft 175 kts 298°
2026-04-24 20:31 37.57424 -122.26425 1642 ft 162 kts 298°
2026-04-24 20:32 37.57931 -122.27617 1438 ft 148 kts 297°
2026-04-24 20:32 37.58399 -122.28724 1243 ft 140 kts 297°
2026-04-24 20:32 37.58848 -122.29799 1087 ft 140 kts 297°
2026-04-24 20:32 37.59310 -122.30891 925 ft 141 kts 296°
2026-04-24 20:33 37.59770 -122.32012 725 ft 144 kts 297°
2026-04-24 20:33 37.60261 -122.33113 538 ft 142 kts 297°
2026-04-24 20:33 37.60731 -122.34188 323 ft 137 kts 298°
2026-04-24 20:33 37.61167 -122.35241 132 ft 133 kts 296°
2026-04-24 20:34 37.61592 -122.36253 16 ft 126 kts 298°
2026-04-24 20:34 37.61960 -122.37156 18 ft 95 kts 295°
2026-04-24 20:34 37.62168 -122.37659 28 ft 38 kts 295°
2026-04-24 20:34 37.62210 -122.37917 32 ft 25 kts 277°
2026-04-24 20:35 37.62227 -122.38098 33 ft 14 kts 276°